This is the latest recevied weather packets stored in our database for station/object OK2ZA-6. If no packets are shown the sender has not sent any weather packets the latest 1 day(s).
| Time | Temp. | Humidity | Pressure | Rain* | Wind** | Luminosity | Snow |
|---|---|---|---|---|---|---|---|
| 1777971004 | 16.67° C | 56% | 1009.1 hPa | 0 mm | 3.13 m/s, 127° | - | - |
| 1777970404 | 16.11° C | 58% | 1009.1 hPa | 0 mm | 2.68 m/s, 125° | - | - |
| 1777969804 | 15.56° C | 60% | 1009.1 hPa | 0 mm | 3.13 m/s, 101° | - | - |
| 1777969204 | 15.56° C | 57% | 1009.1 hPa | 0 mm | 2.68 m/s, 92° | - | - |
| 1777968604 | 15.56° C | 57% | 1009.1 hPa | 0 mm | 2.68 m/s, 102° | - | - |
| 1777968004 | 15.56° C | 57% | 1009.1 hPa | 0 mm | 2.68 m/s, 97° | - | - |
| 1777967404 | 15° C | 57% | 1009.1 hPa | 0 mm | 2.24 m/s, 97° | - | - |
| 1777966804 | 15° C | 57% | 1009.1 hPa | 0 mm | 3.13 m/s, 124° | - | - |
| 1777966204 | 15° C | 58% | 1009.2 hPa | 0 mm | 3.13 m/s, 99° | - | - |
| 1777965604 | 14.44° C | 58% | 1009.3 hPa | 0 mm | 3.13 m/s, 90° | - | - |
| 1777965003 | 14.44° C | 59% | 1009.2 hPa | 0 mm | 2.68 m/s, 126° | - | - |
| 1777964404 | 14.44° C | 59% | 1009.3 hPa | 0 mm | 2.68 m/s, 123° | - | - |
| 1777963804 | 13.89° C | 58% | 1009.3 hPa | 0 mm | 3.13 m/s, 108° | - | - |
| 1777963203 | 13.89° C | 58% | 1009.4 hPa | 0 mm | 2.68 m/s, 121° | - | - |
| 1777962604 | 13.89° C | 57% | 1009.5 hPa | 0 mm | 2.68 m/s, 123° | - | - |
| 1777962004 | 13.89° C | 57% | 1009.5 hPa | 0 mm | 2.68 m/s, 113° | - | - |
| 1777961403 | 13.89° C | 56% | 1009.5 hPa | 0 mm | 2.24 m/s, 121° | - | - |
| 1777960804 | 13.89° C | 55% | 1009.4 hPa | 0 mm | 2.68 m/s, 109° | - | - |
| 1777960204 | 13.89° C | 55% | 1009.2 hPa | 0 mm | 2.24 m/s, 94° | - | - |
| 1777959604 | 13.89° C | 54% | 1009.1 hPa | 0 mm | 2.68 m/s, 90° | - | - |
| 1777959004 | 13.89° C | 55% | 1009.1 hPa | 0 mm | 2.68 m/s, 95° | - | - |
| 1777958404 | 13.33° C | 54% | 1009.2 hPa | 0 mm | 2.24 m/s, 94° | - | - |
| 1777957804 | 13.33° C | 55% | 1009.1 hPa | 0 mm | 2.24 m/s, 89° | - | - |
| 1777957203 | 12.78° C | 56% | 1009.2 hPa | 0 mm | 1.34 m/s, 87° | - | - |
| 1777956604 | 12.22° C | 58% | 1009.3 hPa | 0 mm | 1.79 m/s, 83° | - | - |
* Rain latest hour (hover to see other rain measurements)
** Current wind speed in m/s (hover to see current wind gust speed)